Location: El Nido
(33.8656°N, 118.3615°W)
Time: 03:38:43
(UTC+00:00)

Cosmos 1818 - Pass Details

Date: 03 August 2024
Orbit: 770 x 801 km, 65.0° (Epoch: 12 September)

Event Time Altitude Azimuth Distance (km) Brightness Sun altitude
Exits shadow 12:01:55 11° 201° (SSW) 2,290 5.5 -12.9°
Maximum altitude 12:07:10 76° 116° (ESE) 819 3.7 -12.0°
Drops below altitude 10° 12:12:37 10° 32° (NNE) 2,372 7.1 -11.0°
Sets 12:15:03 0° 31° (NNE) 3,308 7.9 -10.6°
